Belden, MS

6:56 AM CDT on September 27, 2016 (GMT -0500)
Tupelo Regional

Weather History for KTUP - May, 2014

Change the Weather History Date:

Thursday, May 8, 2014

  Actual Average Record
Temperature  
Mean Temperature 75 °F 68 °F  
Max Temperature 86 °F 80 °F 94 °F (1986)
Min Temperature 63 °F 57 °F 44 °F (1958)
Degree Days  
Heating Degree Days 0 1  
Month to date heating degree days 15 12  
Since 1 July heating degree days 3450 2944  
Cooling Degree Days 10 5  
Month to date cooling degree days 36 32  
Year to date cooling degree days 78 108  
Growing Degree Days 24 (Base 50)    
Moisture  
Dew Point 61 °F    
Average Humidity 67    
Maximum Humidity 93    
Minimum Humidity 40    
Precipitation  
Precipitation 0.00 in 0.18 in 1.63 in (1985)
Month to date precipitation 0.00 1.50  
Year to date precipitation 15.77 20.54  
Snow  
Snow 0.00 in 0.00 in - ()
Month to date snowfall 0.0 0.0  
Since 1 July snowfall 0.5 2.1  
Snow Depth 0.00 in    
Sea Level Pressure  
Sea Level Pressure 30.04 in    
Wind  
Wind Speed 10 mph (SSW)    
Max Wind Speed 20 mph    
Max Gust Speed 25 mph    
Visibility 10 miles    
Events      
T = Trace of Precipitation, MM = Missing Value Source: NWS Daily Summary

Daily Weather History Graph

Daily Weather History Graph

Search for Another Location

Airport or City:

Trip Planner

Search our weather history database for the weather conditions in past years. The results will help you decide how hot, cold, wet, or windy it might be!

Date:

Astronomy

May. 08, 2014 Rise Set
Actual Time 5:58 AM CDT 7:44 PM CDT
Civil Twilight 5:31 AM CDT 8:12 PM CDT
Nautical Twilight 4:58 AM CDT 8:45 PM CDT
Astronomical Twilight 4:23 AM CDT 9:20 PM CDT
Moon 2:00 PM CDT (5/8) 2:13 AM CDT (5/8)
Length of Visible Light 14h 40m
Length of Day
13h 46m
Waxing Gibbous, 65% of the Moon is Illuminated
May 8
Waxing Gibbous
May 14
Full
May 21
Last Quarter
May 28
New
Jun 5
First Quarter

Hourly Weather History & Observations

Time (CDT) Temp. Heat Index Dew Point Humidity Pressure Visibility Wind Dir Wind Speed Gust Speed Precip Events Conditions
12:53 AM 66.9 °F - 61.0 °F 81% 30.02 in 10.0 mi SSW 6.9 mph - N/A   Clear
1:53 AM 68.0 °F - 61.0 °F 78% 30.02 in 10.0 mi SSW 9.2 mph - N/A   Clear
2:53 AM 66.9 °F - 61.0 °F 81% 30.02 in 10.0 mi SW 6.9 mph - N/A   Clear
3:53 AM 66.0 °F - 61.0 °F 84% 30.04 in 10.0 mi South 5.8 mph - N/A   Clear
4:53 AM 64.0 °F - 61.0 °F 90% 30.05 in 10.0 mi SSW 4.6 mph - N/A   Clear
5:53 AM 64.0 °F - 61.0 °F 90% 30.07 in 8.0 mi SSW 3.5 mph - N/A   Clear
6:53 AM 64.9 °F - 62.1 °F 90% 30.09 in 6.0 mi South 5.8 mph - N/A   Clear
7:53 AM 68.0 °F - 63.0 °F 84% 30.10 in 10.0 mi South 6.9 mph - N/A   Clear
8:53 AM 73.0 °F - 64.0 °F 73% 30.11 in 10.0 mi South 11.5 mph - N/A   Clear
9:53 AM 77.0 °F - 62.6 °F 61% 30.12 in 10.0 mi SW 11.5 mph - N/A   Clear
10:53 AM 79.0 °F - 63.0 °F 58% 30.11 in 10.0 mi SSW 10.4 mph - N/A   Clear
11:53 AM 82.0 °F 83.0 °F 62.1 °F 51% 30.09 in 10.0 mi SSW 13.8 mph - N/A   Clear
12:53 PM 82.9 °F 83.3 °F 61.0 °F 47% 30.06 in 10.0 mi South 13.8 mph - N/A   Clear
1:53 PM 84.9 °F 85.4 °F 62.1 °F 46% 30.04 in 10.0 mi South 12.7 mph 23.0 mph N/A   Clear
2:53 PM 84.9 °F 85.9 °F 63.0 °F 48% 30.02 in 10.0 mi SSW 13.8 mph 21.9 mph N/A   Partly Cloudy
3:53 PM 84.2 °F 84.4 °F 60.8 °F 45% 30.02 in 10.0 mi South 13.8 mph 18.4 mph N/A   Clear
4:53 PM 82.9 °F 82.1 °F 55.9 °F 39% 30.02 in 10.0 mi South 13.8 mph - N/A   Clear
5:53 PM 81.0 °F 81.1 °F 57.9 °F 45% 30.02 in 10.0 mi South 13.8 mph - N/A   Clear
6:53 PM 79.0 °F - 61.0 °F 54% 30.01 in 10.0 mi South 9.2 mph 19.6 mph N/A   Clear
7:53 PM 77.0 °F - 61.0 °F 58% 30.01 in 10.0 mi South 6.9 mph - N/A   Clear
8:53 PM 75.9 °F - 61.0 °F 60% 30.00 in 10.0 mi South 9.2 mph - N/A   Clear
9:53 PM 75.0 °F - 61.0 °F 62% 30.00 in 10.0 mi South 8.1 mph - N/A   Clear
10:53 PM 75.0 °F - 62.1 °F 64% 29.99 in 10.0 mi South 6.9 mph - N/A   Clear
11:53 PM 73.9 °F - 62.1 °F 66% 29.99 in 10.0 mi SSW 11.5 mph - N/A   Clear